This is the latest recevied weather packets stored in our database for station/object KC5TIL. If no packets are shown the sender has not sent any weather packets the latest 10 day(s).
| Time | Temp. | Humidity | Pressure | Rain* | Wind** | Luminosity | Snow |
|---|---|---|---|---|---|---|---|
| 1777857371 | 23.33° C | 45% | 1016.3 hPa | 0 mm | - | 0 W/m² | - |
| 1777857067 | 23.33° C | 45% | 1016.2 hPa | 0 mm | - | 2 W/m² | - |
| 1777856762 | 23.33° C | 44% | 1016.3 hPa | 0 mm | - | 3 W/m² | - |
| 1777856459 | 23.33° C | 45% | 1016.3 hPa | 0 mm | - | 6 W/m² | - |
| 1777856155 | 23.89° C | 43% | 1016.2 hPa | 0 mm | - | 9 W/m² | - |
| 1777855853 | 23.89° C | 43% | 1016.1 hPa | 0 mm | - | 11 W/m² | - |
| 1777855551 | 23.89° C | 42% | 1016.1 hPa | 0 mm | - | 13 W/m² | - |
| 1777855247 | 24.44° C | 42% | 1015.9 hPa | 0 mm | - | 16 W/m² | - |
| 1777854943 | 24.44° C | 42% | 1015.7 hPa | 0 mm | - | 19 W/m² | - |
| 1777854640 | 25° C | 41% | 1015.8 hPa | 0 mm | - | 26 W/m² | - |
| 1777854337 | 25° C | 41% | 1015.8 hPa | 0 mm | - | 35 W/m² | - |
| 1777854035 | 25° C | 40% | 1015.9 hPa | 0 mm | - | 55 W/m² | - |
| 1777853733 | 25.56° C | 39% | 1015.9 hPa | 0 mm | - | 63 W/m² | - |
| 1777853428 | 25.56° C | 39% | 1015.9 hPa | 0 mm | - | 65 W/m² | - |
| 1777853126 | 25.56° C | 38% | 1016 hPa | 0 mm | - | 75 W/m² | - |
| 1777852823 | 26.11° C | 38% | 1015.9 hPa | 0 mm | - | 113 W/m² | - |
| 1777852521 | 25.56° C | 37% | 1015.9 hPa | 0 mm | - | 119 W/m² | - |
| 1777852218 | 26.11° C | 35% | 1016.1 hPa | 0 mm | - | 119 W/m² | - |
| 1777851915 | 26.11° C | 36% | 1015.9 hPa | 0 mm | - | 109 W/m² | - |
| 1777851614 | 26.11° C | 37% | 1015.9 hPa | 0 mm | - | 168 W/m² | - |
| 1777851310 | 26.67° C | 39% | 1015.9 hPa | 0 mm | - | 184 W/m² | - |
| 1777851006 | 26.67° C | 38% | 1016.1 hPa | 0 mm | - | 192 W/m² | - |
| 1777850703 | 26.67° C | 35% | 1016 hPa | 0 mm | - | 217 W/m² | - |
| 1777850401 | 27.22° C | 35% | 1016.2 hPa | 0 mm | - | 226 W/m² | - |
| 1777850098 | 27.22° C | 35% | 1016.2 hPa | 0 mm | - | 221 W/m² | - |
* Rain latest hour (hover to see other rain measurements)
** Current wind speed in m/s (hover to see current wind gust speed)